GW6556 Weather Reports


time (UTC)temp
F
wind
direction
speed
knots
gust
knots
rain 1hr
in
rain 24hr
in
rain mn
in
humidity
%
barometer
mb
20260506044740 64 209 0.0 3.5 0.00 0.00 0.00 60 1014.4
20260506044238 64 306 0.0 1.7 0.00 0.00 0.00 61 1014.2
20260506043735 65 187 0.9 2.6 0.00 0.00 0.00 60 1014.4
20260506043232 65 325 0.0 3.5 0.00 0.00 0.00 60 1014.5
20260506042731 65 277 3.5 3.5 0.00 0.00 0.00 55 1014.4
20260506042229 65 255 3.5 3.5 0.00 0.00 0.00 55 1014.2
20260506041727 64 288 2.6 4.3 0.00 0.00 0.00 60 1014.4
20260506041224 64 4 1.7 1.7 0.00 0.00 0.00 62 1014.1
20260506040721 64 279 1.7 2.6 0.00 0.00 0.00 62 1014.0
20260506040218 64 263 1.7 1.7 0.00 0.00 0.00 63 1014.0
20260506035715 63 290 1.7 1.7 0.00 0.00 0.00 60 1013.8
20260506035212 63 278 0.0 0.9 0.00 0.00 0.00 63 1014.2
20260506034709 64 302 0.9 2.6 0.00 0.00 0.00 64 1014.2
20260506034206 64 141 0.0 1.7 0.00 0.00 0.00 62 1014.5
20260506033703 64 253 0.0 2.6 0.00 0.00 0.00 62 1014.7
20260506033200 64 234 0.0 1.7 0.00 0.00 0.00 63 1014.6
20260506032657 64 286 0.9 4.3 0.00 0.00 0.00 56 1014.5
20260506032154 64 257 1.7 2.6 0.00 0.00 0.00 64 1014.4
20260506031651 64 50 0.0 1.7 0.00 0.00 0.00 60 1014.5
20260506031148 64 279 0.9 0.9 0.00 0.00 0.00 59 1014.6
20260506030647 64 132 0.9 1.7 0.00 0.00 0.00 61 1014.5
20260506030143 63 273 0.0 1.7 0.00 0.00 0.00 58 1014.7
20260506025640 63 116 1.7 2.6 0.00 0.00 0.00 61 1014.6
20260506025136 63 172 0.0 0.9 0.00 0.00 0.00 60 1014.5
20260506024634 63 329 0.9 1.7 0.00 0.00 0.00 59 1014.4
20260506024130 64 267 1.7 1.7 0.00 0.00 0.00 61 1014.0
20260506023626 64 294 1.7 7.0 0.00 0.00 0.00 56 1014.2
20260506023123 64 269 0.0 1.7 0.00 0.00 0.00 58 1013.9
20260506022621 64 292 5.2 5.2 0.00 0.00 0.00 57 1014.4
20260506022118 63 328 3.5 9.6 0.00 0.00 0.00 55 1014.1
20260506021616 63 304 1.7 2.6 0.00 0.00 0.00 63 1014.1
20260506021113 63 325 1.7 2.6 0.00 0.00 0.00 64 1014.4
20260506020610 63 276 1.7 2.6 0.00 0.00 0.00 62 1014.2
20260506020108 62 251 1.7 1.7 0.00 0.00 0.00 64 1014.0
20260506015605 62 240 0.9 2.6 0.00 0.00 0.00 64 1014.2
20260506015101 61 212 0.0 1.7 0.00 0.00 0.00 66 1014.4
20260506014559 61 265 1.7 2.6 0.00 0.00 0.00 66 1014.1
20260506014054 60 217 0.0 0.9 0.00 0.00 0.00 67 1014.0
20260506013553 60 17 0.0 1.7 0.00 0.00 0.00 67 1014.1
20260506013049 60 334 0.9 1.7 0.00 0.00 0.00 68 1014.2
20260506012545 60 308 1.7 2.6 0.00 0.00 0.00 69 1013.9
20260506012042 61 287 1.7 2.6 0.00 0.00 0.00 66 1013.7
20260506011541 62 288 0.9 1.7 0.00 0.00 0.00 62 1013.7
20260506011036 62 157 0.0 1.7 0.00 0.00 0.00 63 1013.7
20260506010536 62 224 0.0 0.9 0.00 0.00 0.00 61 1014.0
20260506010032 62 279 1.7 1.7 0.00 0.00 0.00 59 1013.8
20260506005529 62 246 0.0 1.7 0.00 0.00 0.00 62 1013.9
20260506005025 63 246 0.0 1.7 0.00 0.00 0.00 59 1013.9
20260506004523 63 235 0.0 1.7 0.00 0.00 0.00 61 1013.9
20260506004019 63 224 0.0 0.9 0.00 0.00 0.00 58 1014.0
20260506003516 63 139 0.0 0.9 0.00 0.00 0.00 58 1013.9
20260506003012 64 149 0.0 1.7 0.00 0.00 0.00 60 1014.0
20260506002508 64 129 0.0 1.7 0.00 0.00 0.00 58 1014.0
20260506002003 64 163 0.0 0.9 0.00 0.00 0.00 59 1013.9
20260506001500 64 295 0.9 2.6 0.00 0.00 0.00 57 1013.8
20260506000958 65 230 0.0 0.9 0.00 0.00 0.00 60 1013.7
20260506000455 65 220 0.9 0.9 0.00 0.00 0.00 63 1013.9
20260505235952 66 276 0.9 1.7 0.00 0.00 0.00 61 1013.7
20260505235450 66 269 0.0 1.7 0.00 0.00 0.00 56 1013.7
20260505234946 67 298 1.7 2.6 0.00 0.00 0.00 55 1013.7
20260505234444 67 295 1.7 2.6 0.00 0.00 0.00 54 1013.5
20260505233940 67 274 0.9 2.6 0.00 0.00 0.00 56 1013.5
20260505233438 67 293 3.5 4.3 0.00 0.00 0.00 54 1013.5
20260505232935 67 250 2.6 2.6 0.00 0.00 0.00 56 1013.4
20260505232434 67 268 2.6 3.5 0.00 0.00 0.00 54 1013.6
20260505231930 67 303 1.7 4.3 0.00 0.00 0.00 52 1013.7
20260505231427 67 21 0.0 0.9 0.00 0.00 0.00 55 1013.9
20260505230925 68 277 0.9 1.7 0.00 0.00 0.00 55 1014.1
20260505230423 68 263 2.6 2.6 0.00 0.00 0.00 47 1014.4
20260505225919 68 289 0.9 1.7 0.00 0.00 0.00 56 1014.2
20260505225416 69 276 1.7 1.7 0.00 0.00 0.00 54 1014.1
20260505224912 69 284 0.0 0.9 0.00 0.00 0.00 56 1014.1
20260505224409 70 259 0.9 1.7 0.00 0.00 0.00 51 1014.2
20260505223906 70 282 4.3 4.3 0.00 0.00 0.00 48 1013.9
20260505223403 70 316 0.0 2.6 0.00 0.00 0.00 47 1014.2
20260505222859 70 98 0.0 3.5 0.00 0.00 0.00 40 1014.2
20260505222356 71 273 1.7 2.6 0.00 0.00 0.00 41 1014.1
20260505221852 71 280 1.7 4.3 0.00 0.00 0.00 41 1014.2
20260505221349 71 289 1.7 3.5 0.00 0.00 0.00 42 1014.5
20260505220846 71 285 3.5 9.6 0.00 0.00 0.00 39 1014.6
20260505220343 71 316 3.5 5.2 0.00 0.00 0.00 40 1014.4
20260505215841 71 267 3.5 5.2 0.00 0.00 0.00 41 1014.0
20260505215339 72 180 0.9 5.2 0.00 0.00 0.00 39 1013.9
20260505214837 72 309 2.6 5.2 0.00 0.00 0.00 38 1014.0
20260505214334 72 281 4.3 5.2 0.00 0.00 0.00 37 1014.1
20260505213831 73 256 4.3 9.6 0.00 0.00 0.00 36 1014.1
20260505213329 73 325 7.8 7.8 0.00 0.00 0.00 37 1014.0
20260505212824 72 265 2.6 6.1 0.00 0.00 0.00 37 1013.9
20260505212322 72 353 0.9 7.8 0.00 0.00 0.00 36 1013.8
20260505211818 73 279 3.5 5.2 0.00 0.00 0.00 37 1014.2
20260505211316 73 323 4.3 7.0 0.00 0.00 0.00 36 1014.2
20260505210812 72 247 1.7 5.2 0.00 0.00 0.00 37 1014.0
20260505210309 73 332 1.7 4.3 0.00 0.00 0.00 42 1014.1
20260505205806 74 275 7.0 13.0 0.00 0.00 0.00 35 1014.2
20260505205305 75 244 6.1 10.4 0.00 0.00 0.00 32 1014.1
20260505204800 75 260 5.2 6.1 0.00 0.00 0.00 36 1014.1
20260505204258 74 299 0.0 7.0 0.00 0.00 0.00 35 1014.0
20260505203755 74 343 0.9 12.2 0.00 0.00 0.00 30 1014.1
20260505203252 74 262 5.2 7.8 0.00 0.00 0.00 35 1014.0
20260505202749 74 347 0.9 7.0 0.00 0.00 0.00 37 1014.0
20260505202244 74 178 1.7 6.1 0.00 0.00 0.00 35 1013.9
20260505201741 74 255 5.2 5.2 0.00 0.00 0.00 40 1013.9
20260505201239 75 273 9.6 10.4 0.00 0.00 0.00 38 1014.0
20260505200737 75 329 4.3 8.7 0.00 0.00 0.00 40 1014.1
20260505200234 75 261 6.1 6.1 0.00 0.00 0.00 42 1014.4
20260505195729 75 254 3.5 10.4 0.00 0.00 0.00 39 1014.2
20260505195227 75 271 2.6 6.1 0.00 0.00 0.00 39 1014.5
20260505194724 75 290 3.5 9.6 0.00 0.00 0.00 36 1014.5
20260505194220 75 264 7.0 11.3 0.00 0.00 0.00 39 1014.2
20260505193716 75 275 2.6 5.2 0.00 0.00 0.00 38 1014.5
20260505193214 74 290 6.1 9.6 0.00 0.00 0.00 38 1014.8
20260505192712 73 274 4.3 4.3 0.00 0.00 0.00 40 1014.7
20260505192209 74 271 2.6 6.1 0.00 0.00 0.00 37 1014.9
20260505191708 74 313 1.7 3.5 0.00 0.00 0.00 44 1015.0
20260505191206 74 240 4.3 7.8 0.00 0.00 0.00 38 1015.0
20260505190702 74 169 1.7 9.6 0.00 0.00 0.00 40 1015.2
20260505190201 74 263 5.2 6.1 0.00 0.00 0.00 43 1015.2
20260505185658 74 293 5.2 11.3 0.00 0.00 0.00 41 1015.2
20260505185154 74 308 2.6 13.0 0.00 0.00 0.00 41 1015.2
20260505184651 73 224 6.1 11.3 0.00 0.00 0.00 42 1015.4
20260505184148 73 248 6.1 8.7 0.00 0.00 0.00 38 1014.9
20260505183645 74 332 1.7 7.8 0.00 0.00 0.00 42 1015.0
20260505183143 73 151 2.6 11.3 0.00 0.00 0.00 42 1015.2
20260505182638 72 262 7.0 9.6 0.00 0.00 0.00 42 1015.2
20260505182136 73 346 1.7 8.7 0.00 0.00 0.00 41 1015.3
20260505181632 73 311 4.3 7.0 0.00 0.00 0.00 41 1015.5
20260505181130 73 344 2.6 7.8 0.00 0.00 0.00 40 1015.5
20260505180625 73 317 4.3 8.7 0.00 0.00 0.00 43 1015.6
20260505180123 72 320 1.7 4.3 0.00 0.00 0.00 44 1015.8
20260505175619 71 300 5.2 13.0 0.00 0.00 0.00 41 1016.0
20260505175116 72 272 5.2 7.8 0.00 0.00 0.00 40 1016.0
20260505174612 73 315 1.7 6.1 0.00 0.00 0.00 39 1015.9
20260505174108 72 53 0.9 4.3 0.00 0.00 0.00 42 1016.2
20260505173605 72 279 6.1 7.0 0.00 0.00 0.00 36 1016.3
20260505173102 72 280 1.7 7.8 0.00 0.00 0.00 40 1016.3
20260505172600 73 258 6.1 6.1 0.00 0.00 0.00 37 1016.2
20260505172057 73 21 0.9 6.1 0.00 0.00 0.00 35 1016.2
20260505171556 72 78 3.5 7.8 0.00 0.00 0.00 38 1016.4
20260505171054 72 251 7.0 8.7 0.00 0.00 0.00 38 1016.3
20260505170551 72 56 3.5 8.7 0.00 0.00 0.00 41 1016.3
20260505170047 71 248 5.2 10.4 0.00 0.00 0.00 38 1016.4
20260505165542 72 346 1.7 8.7 0.00 0.00 0.00 37 1016.2
20260505165038 71 263 1.7 8.7 0.00 0.00 0.00 38 1016.2
20260505164535 71 263 4.3 7.8 0.00 0.00 0.00 38 1016.2
20260505164032 71 334 1.7 12.2 0.00 0.00 0.00 35 1016.2
20260505163531 72 248 1.7 5.2 0.00 0.00 0.00 37 1016.2
20260505163027 72 262 7.8 11.3 0.00 0.00 0.00 36 1016.6
20260505162521 72 28 8.7 8.7 0.00 0.00 0.00 37 1016.9
20260505162018 71 274 6.1 9.6 0.00 0.00 0.00 36 1016.5
20260505161514 71 310 6.1 10.4 0.00 0.00 0.00 36 1016.4
20260505161011 72 263 7.0 7.8 0.00 0.00 0.00 35 1016.4
20260505160510 71 321 4.3 6.1 0.00 0.00 0.00 35 1016.8
20260505152946 69 326 6.1 9.6 0.00 0.00 0.00 46 1016.7
20260505152443 68 331 3.5 7.0 0.00 0.00 0.00 49 1016.5
20260505151943 68 318 5.2 7.0 0.00 0.00 0.00 48 1016.6
20260505151439 68 308 5.2 5.2 0.00 0.00 0.00 53 1016.7
20260505150937 66 312 2.6 4.3 0.00 0.00 0.00 54 1017.0
20260505150434 67 1 0.0 2.6 0.00 0.00 0.00 54 1016.9
20260505140404 65 294 3.5 5.2 0.00 0.00 0.00 61 1016.5
20260505124817 49 345 0.0 1.7 0.00 0.00 0.00 98 1016.0
20260505124314 48 318 0.9 1.7 0.00 0.00 0.00 99 1016.2
20260505123810 48 305 0.9 1.7 0.00 0.00 0.00 99 1015.9
20260505123307 47 1 0.9 1.7 0.00 0.00 0.00 99 1015.9
20260505122803 46 353 0.0 0.9 0.00 0.00 0.00 99 1016.2
20260505122301 46 24 0.0 0.9 0.00 0.00 0.00 99 1015.9
20260505121756 45 326 0.0 0.9 0.00 0.00 0.00 99 1015.9
20260505121253 45 338 0.0 0.9 0.00 0.00 0.00 99 1015.9
20260505120750 44 317 0.9 1.7 0.00 0.00 0.00 99 1016.0
20260505120246 43 293 0.0 0.0 0.00 0.00 0.00 99 1016.2
20260505115745 43 53 0.0 0.9 0.00 0.00 0.00 98 1016.0
20260505115243 43 293 0.9 1.7 0.00 0.00 0.00 98 1016.0
20260505114740 42 305 0.9 1.7 0.00 0.00 0.00 98 1016.0
20260505114236 42 298 0.9 1.7 0.00 0.00 0.00 98 1015.9
20260505113733 42 304 0.0 1.7 0.00 0.00 0.00 98 1015.8
20260505113229 42 286 1.7 1.7 0.00 0.00 0.00 98 1015.9
20260505112725 41 64 0.9 0.9 0.00 0.00 0.00 98 1015.7
20260505112223 42 286 0.9 3.5 0.00 0.00 0.00 98 1015.5
20260505111723 41 240 0.0 0.9 0.00 0.00 0.00 98 1015.5
20260505111219 41 278 2.6 2.6 0.00 0.00 0.00 98 1015.5
20260505110715 41 307 1.7 1.7 0.00 0.00 0.00 98 1015.6
20260505110213 41 280 2.6 2.6 0.00 0.00 0.00 98 1015.4
20260505102148 42 274 1.7 1.7 0.00 0.00 0.00 98 1015.2
20260505101647 42 39 0.0 2.6 0.00 0.00 0.00 98 1015.2
20260505101143 42 279 1.7 1.7 0.00 0.00 0.00 98 1015.3
20260505100639 42 27 1.7 1.7 0.00 0.00 0.00 98 1015.3
20260505100136 42 285 1.7 1.7 0.00 0.00 0.00 98 1015.3
20260505095632 42 315 0.0 2.6 0.00 0.00 0.00 98 1015.4
20260505095129 42 305 1.7 1.7 0.00 0.00 0.00 98 1015.2
20260505094626 42 292 3.5 3.5 0.00 0.00 0.00 98 1015.3
20260505094122 42 65 0.0 1.7 0.00 0.00 0.00 98 1015.4
20260505093618 42 29 0.0 1.7 0.00 0.00 0.00 98 1015.4
20260505093115 42 308 0.0 2.6 0.00 0.00 0.00 98 1015.3
20260505092612 42 279 1.7 2.6 0.00 0.00 0.00 98 1015.2
20260505092112 42 253 1.7 2.6 0.00 0.00 0.00 98 1015.3
20260505091608 42 329 0.0 1.7 0.00 0.00 0.00 98 1015.4
20260505091106 42 297 1.7 1.7 0.00 0.00 0.00 97 1015.2
20260505090604 43 279 1.7 1.7 0.00 0.00 0.00 98 1015.4
20260505085559 43 306 0.9 0.9 0.00 0.00 0.00 97 1015.5
20260505085057 43 275 0.9 2.6 0.00 0.00 0.00 97 1015.6
20260505084555 43 302 0.0 1.7 0.00 0.00 0.00 97 1015.5
20260505084052 43 300 1.7 1.7 0.00 0.00 0.00 97 1015.6
20260505083549 43 261 0.9 1.7 0.00 0.00 0.00 97 1015.4
20260505083046 43 298 0.9 1.7 0.00 0.00 0.00 97 1015.5
20260505082542 43 273 0.9 1.7 0.00 0.00 0.00 97 1015.5
20260505082039 43 305 0.9 1.7 0.00 0.00 0.00 97 1015.4
20260505081535 43 289 1.7 1.7 0.00 0.00 0.00 97 1015.4
20260505081032 43 276 0.9 1.7 0.00 0.00 0.00 97 1015.4
20260505080528 43 309 0.9 1.7 0.00 0.00 0.00 97 1015.5
20260505080025 43 303 0.9 1.7 0.00 0.00 0.00 97 1015.4
20260505075521 43 274 0.9 1.7 0.00 0.00 0.00 97 1015.3
20260505075018 44 298 0.0 1.7 0.00 0.00 0.00 97 1015.4
20260505074515 44 315 1.7 1.7 0.00 0.00 0.00 97 1015.5
20260505074013 44 319 1.7 2.6 0.00 0.00 0.00 97 1015.5
20260505073510 44 247 1.7 1.7 0.00 0.00 0.00 97 1015.5
20260505073008 44 286 1.7 1.7 0.00 0.00 0.00 97 1015.7
20260505072503 44 298 1.7 1.7 0.00 0.00 0.00 97 1015.5
20260505071959 44 274 0.9 1.7 0.00 0.00 0.00 96 1015.5
20260505071455 44 299 0.9 1.7 0.00 0.00 0.00 96 1015.4
20260505070954 44 306 0.9 1.7 0.00 0.00 0.00 96 1015.6
20260505070450 44 292 1.7 2.6 0.00 0.00 0.00 96 1015.4
20260505065946 44 303 1.7 2.6 0.00 0.00 0.00 96 1015.3
20260505065443 44 280 1.7 1.7 0.00 0.00 0.00 96 1015.3
20260505064939 44 297 1.7 2.6 0.00 0.00 0.00 96 1015.5
20260505064436 44 282 1.7 1.7 0.00 0.00 0.00 96 1015.4
20260505063935 45 282 0.9 1.7 0.00 0.00 0.00 96 1015.3
20260505063431 45 284 1.7 2.6 0.00 0.00 0.00 96 1015.3
20260505062927 45 296 0.9 1.7 0.00 0.00 0.00 96 1015.1
20260505062425 45 282 0.0 1.7 0.00 0.00 0.00 96 1015.4
20260505061921 45 279 1.7 1.7 0.00 0.00 0.00 96 1015.6
20260505061420 45 324 0.9 1.7 0.00 0.00 0.00 96 1015.6
20260505060917 45 299 0.9 1.7 0.00 0.00 0.00 96 1015.6
20260505060414 45 293 2.6 2.6 0.00 0.00 0.00 96 1015.6
20260505055910 45 281 1.7 1.7 0.00 0.00 0.00 95 1015.7
20260505055406 46 305 0.9 1.7 0.00 0.00 0.00 95 1015.7
20260505054903 46 335 0.9 1.7 0.00 0.00 0.00 96 1015.7
20260505054400 46 315 0.0 1.7 0.00 0.00 0.00 95 1015.7
20260505053858 46 279 1.7 1.7 0.00 0.00 0.00 95 1015.6
20260505053355 46 298 1.7 1.7 0.00 0.00 0.00 95 1015.9
20260505052852 46 278 1.7 1.7 0.00 0.00 0.00 95 1015.8
20260505052349 46 296 0.9 1.7 0.00 0.00 0.00 95 1015.8
20260505051846 46 354 0.0 1.7 0.00 0.00 0.00 95 1015.9
20260505051343 46 307 1.7 1.7 0.00 0.00 0.00 94 1015.8
20260505050841 46 288 1.7 1.7 0.00 0.00 0.00 94 1015.7
20260505050340 46 305 0.9 1.7 0.00 0.00 0.00 94 1015.5